• In Deutschland
  • Länderverzeichnis
  • Für 7 Tage
  • Wassertemperatur
  • Satellitenkarten
  • Wetterkarte
  • Widgets
  • user-avatar
    Anmelden

    Stündliche Wetter Suhoy Ruchey

    Heute, 21 September, Freitag

    Zeit Temperatur Niederschläge Wind Luftdruck Luftfeuchtigkeit
    00:00 +3°C° 0 mm 3 m/S 725 mmHg 88%
    01:00 +4°C° 0 mm 2 m/S 725 mmHg 90%
    02:00 +3°C° 0 mm 2 m/S 725 mmHg 91%
    03:00 +3°C° 0 mm 2 m/S 725 mmHg 92%
    04:00 +2°C° 0 mm 2 m/S 725 mmHg 93%
    05:00 +2°C° 0 mm 2 m/S 725 mmHg 90%
    06:00 +3°C° 0 mm 2 m/S 725 mmHg 88%
    07:00 +3°C° 0 mm 2 m/S 725 mmHg 86%
    08:00 +5°C° 0 mm 2 m/S 725 mmHg 80%
    09:00 +7°C° 0 mm 2 m/S 724 mmHg 73%
    10:00 +9°C° 0 mm 2 m/S 724 mmHg 67%
    11:00 +10°C° 0 mm 2 m/S 724 mmHg 65%
    12:00 +12°C° 0 mm 2 m/S 723 mmHg 64%
    13:00 +13°C° 0 mm 3 m/S 723 mmHg 48%
    14:00 +12°C° 0 mm 3 m/S 723 mmHg 50%
    15:00 +12°C° 0 mm 3 m/S 723 mmHg 51%
    16:00 +13°C° 0 mm 2 m/S 723 mmHg 53%
    17:00 +10°C° 0 mm 2 m/S 723 mmHg 64%
    18:00 +8°C° 0 mm 1 m/S 724 mmHg 76%
    19:00 +6°C° 0 mm 1 m/S 724 mmHg 87%
    20:00 +6°C° 0 mm 1 m/S 725 mmHg 89%
    21:00 +5°C° 0 mm 1 m/S 725 mmHg 90%
    22:00 +4°C° 0 mm 2 m/S 726 mmHg 92%
    23:00 +4°C° 0 mm 2 m/S 726 mmHg 92%

    Morgen, 22 September, Samstag

    Zeit Temperatur Niederschläge Wind Luftdruck Luftfeuchtigkeit
    00:00 +4°C° 0 mm 2 m/S 726 mmHg 92%
    01:00 +3°C° 0 mm 2 m/S 726 mmHg 93%
    02:00 +3°C° 0 mm 2 m/S 726 mmHg 92%
    03:00 +3°C° 0 mm 2 m/S 726 mmHg 92%
    04:00 +4°C° 0 mm 1 m/S 726 mmHg 91%
    05:00 +4°C° 0 mm 1 m/S 727 mmHg 87%
    06:00 +5°C° 0 mm 1 m/S 727 mmHg 82%
    07:00 +6°C° 0 mm 1 m/S 727 mmHg 78%
    08:00 +9°C° 0 mm 1 m/S 727 mmHg 66%
    09:00 +12°C° 0 mm 1 m/S 726 mmHg 55%
    10:00 +14°C° 0 mm 0 m/S 726 mmHg 43%
    11:00 +16°C° 0 mm 1 m/S 726 mmHg 41%
    12:00 +18°C° 0 mm 1 m/S 725 mmHg 39%
    13:00 +18°C° 0 mm 1 m/S 725 mmHg 37%
    14:00 +18°C° 0 mm 1 m/S 725 mmHg 40%
    15:00 +16°C° 0 mm 1 m/S 724 mmHg 43%
    16:00 +15°C° 0 mm 1 m/S 724 mmHg 46%
    17:00 +13°C° 0 mm 1 m/S 724 mmHg 56%
    18:00 +10°C° 0 mm 1 m/S 724 mmHg 65%
    19:00 +8°C° 0 mm 1 m/S 724 mmHg 75%
    20:00 +7°C° 0 mm 1 m/S 725 mmHg 74%
    21:00 +6°C° 0 mm 2 m/S 725 mmHg 73%
    22:00 +6°C° 0 mm 2 m/S 725 mmHg 73%
    23:00 +5°C° 0 mm 2 m/S 725 mmHg 72%

    übermorgen, 23 September, Sonntag

    Zeit Temperatur Niederschläge Wind Luftdruck Luftfeuchtigkeit
    00:00 +5°C° 0 mm 2 m/S 725 mmHg 71%
    01:00 +5°C° 0 mm 2 m/S 725 mmHg 71%
    02:00 +5°C° 0 mm 2 m/S 725 mmHg 70%
    03:00 +5°C° 0 mm 2 m/S 724 mmHg 70%
    04:00 +5°C° 0 mm 2 m/S 724 mmHg 70%
    05:00 +5°C° 0 mm 2 m/S 724 mmHg 68%
    06:00 +6°C° 0 mm 2 m/S 724 mmHg 65%
    07:00 +6°C° 0 mm 2 m/S 724 mmHg 63%
    08:00 +9°C° 0 mm 2 m/S 724 mmHg 56%
    09:00 +13°C° 0 mm 2 m/S 723 mmHg 49%
    10:00 +16°C° 0 mm 2 m/S 723 mmHg 42%
    11:00 +17°C° 0 mm 2 m/S 722 mmHg 42%
    12:00 +18°C° 0 mm 2 m/S 722 mmHg 41%
    13:00 +19°C° 0 mm 2 m/S 721 mmHg 40%
    14:00 +18°C° 0 mm 2 m/S 721 mmHg 44%
    15:00 +18°C° 0 mm 2 m/S 720 mmHg 47%
    16:00 +17°C° 0 mm 2 m/S 720 mmHg 51%
    17:00 +15°C° 0 mm 2 m/S 720 mmHg 61%
    18:00 +12°C° 0 mm 2 m/S 720 mmHg 70%
    19:00 +9°C° 0 mm 2 m/S 720 mmHg 80%
    20:00 +9°C° 0 mm 2 m/S 720 mmHg 79%
    21:00 +9°C° 0 mm 2 m/S 720 mmHg 78%
    22:00 +9°C° 0 mm 2 m/S 720 mmHg 77%
    23:00 +9°C° 0 mm 2 m/S 720 mmHg 75%

    24 September, Montag

    Zeit Temperatur Niederschläge Wind Luftdruck Luftfeuchtigkeit
    00:00 +9°C° 0 mm 2 m/S 719 mmHg 74%
    01:00 +9°C° 0 mm 2 m/S 719 mmHg 73%
    02:00 +10°C° 0 mm 1 m/S 719 mmHg 74%
    03:00 +10°C° 0 mm 1 m/S 719 mmHg 74%
    04:00 +10°C° 0 mm 1 m/S 719 mmHg 75%
    05:00 +10°C° 0 mm 1 m/S 719 mmHg 74%
    06:00 +10°C° 0 mm 1 m/S 719 mmHg 74%
    07:00 +10°C° 0 mm 1 m/S 720 mmHg 73%
    08:00 +12°C° 0 mm 1 m/S 720 mmHg 66%
    09:00 +15°C° 0 mm 1 m/S 719 mmHg 59%
    10:00 +18°C° 0 mm 1 m/S 719 mmHg 52%
    11:00 +18°C° 0 mm 1 m/S 719 mmHg 51%
    12:00 +19°C° 0 mm 1 m/S 719 mmHg 51%
    13:00 +19°C° 0 mm 1 m/S 719 mmHg 50%
    14:00 +19°C° 0 mm 1 m/S 718 mmHg 52%
    15:00 +19°C° 0 mm 1 m/S 718 mmHg 54%
    16:00 +18°C° 0 mm 1 m/S 718 mmHg 55%
    17:00 +15°C° 0 mm 1 m/S 718 mmHg 65%
    18:00 +13°C° 0 mm 1 m/S 718 mmHg 74%
    19:00 +10°C° 0 mm 1 m/S 718 mmHg 83%
    20:00 +10°C° 0 mm 1 m/S 718 mmHg 83%
    21:00 +10°C° 0 mm 1 m/S 718 mmHg 83%
    22:00 +10°C° 0 mm 1 m/S 718 mmHg 83%
    23:00 +10°C° 0 mm 1 m/S 718 mmHg 83%

    25 September, Dienstag

    Zeit Temperatur Niederschläge Wind Luftdruck Luftfeuchtigkeit
    00:00 +9°C° 0 mm 1 m/S 718 mmHg 84%
    01:00 +9°C° 0 mm 1 m/S 718 mmHg 84%
    02:00 +9°C° 0 mm 1 m/S 717 mmHg 84%
    03:00 +9°C° 0 mm 1 m/S 717 mmHg 85%
    04:00 +9°C° 0 mm 1 m/S 717 mmHg 85%
    05:00 +9°C° 0 mm 1 m/S 717 mmHg 83%
    06:00 +10°C° 0 mm 1 m/S 717 mmHg 81%
    07:00 +10°C° 0 mm 1 m/S 717 mmHg 79%
    08:00 +13°C° 0 mm 1 m/S 717 mmHg 71%
    09:00 +15°C° 0 mm 1 m/S 716 mmHg 63%
    10:00 +18°C° 0 mm 2 m/S 716 mmHg 54%
    11:00 +18°C° 0 mm 2 m/S 716 mmHg 55%
    12:00 +18°C° 0 mm 2 m/S 715 mmHg 56%
    13:00 +18°C° 0 mm 2 m/S 715 mmHg 56%
    14:00 +18°C° 0.6 mm 1 m/S 715 mmHg 66%
    15:00 +15°C° 0.6 mm 1 m/S 715 mmHg 76%
    16:00 +14°C° 0.6 mm 1 m/S 715 mmHg 86%
    17:00 +13°C° 1.2 mm 1 m/S 715 mmHg 90%
    18:00 +12°C° 1.2 mm 1 m/S 715 mmHg 93%
    19:00 +12°C° 1.2 mm 1 m/S 715 mmHg 97%
    20:00 +12°C° 1 mm 1 m/S 716 mmHg 97%
    21:00 +12°C° 1 mm 1 m/S 716 mmHg 97%
    22:00 +12°C° 1 mm 1 m/S 716 mmHg 97%
    23:00 +12°C° 0.5 mm 1 m/S 716 mmHg 97%

    26 September, Mittwoch

    Zeit Temperatur Niederschläge Wind Luftdruck Luftfeuchtigkeit
    00:00 +12°C° 0.5 mm 1 m/S 716 mmHg 98%
    01:00 +11°C° 0.5 mm 1 m/S 716 mmHg 98%
    02:00 +11°C° 0.3 mm 1 m/S 716 mmHg 98%
    03:00 +11°C° 0.3 mm 1 m/S 716 mmHg 98%
    04:00 +11°C° 0.3 mm 1 m/S 716 mmHg 98%
    05:00 +11°C° 0.2 mm 1 m/S 716 mmHg 97%
    06:00 +10°C° 0.2 mm 2 m/S 717 mmHg 97%
    07:00 +10°C° 0.2 mm 2 m/S 717 mmHg 97%
    08:00 +10°C° 0.2 mm 2 m/S 717 mmHg 96%
    09:00 +10°C° 0.2 mm 2 m/S 717 mmHg 94%
    10:00 +10°C° 0.2 mm 2 m/S 717 mmHg 93%
    11:00 +12°C° 0.1 mm 1 m/S 717 mmHg 88%
    12:00 +13°C° 0.1 mm 1 m/S 717 mmHg 83%
    13:00 +14°C° 0.1 mm 1 m/S 716 mmHg 78%
    14:00 +14°C° 0 mm 1 m/S 716 mmHg 75%
    15:00 +14°C° 0 mm 1 m/S 716 mmHg 73%
    16:00 +15°C° 0 mm 1 m/S 716 mmHg 71%
    17:00 +13°C° 0 mm 1 m/S 717 mmHg 78%
    18:00 +11°C° 0 mm 1 m/S 717 mmHg 85%
    19:00 +9°C° 0 mm 1 m/S 717 mmHg 91%
    20:00 +9°C° 0 mm 1 m/S 718 mmHg 91%
    21:00 +9°C° 0 mm 1 m/S 718 mmHg 91%
    22:00 +9°C° 0 mm 1 m/S 718 mmHg 91%
    23:00 +8°C° 0.4 mm 2 m/S 719 mmHg 92%
    Mehr zeigen